CZ-6A DEB, 55881

Orbit data source: Space-Track

CZ-6A DEB, 55881 is space debris in SSO originally from a launch on Fri, 11 Nov 2022 UTC launched from the Taiyaun Space Center, China (TSC). Debris objects in space refer to the collection of defunct objects orbiting the Earth. Examples of debris include non-operational satellites, rocket bodies, and fragments generated from explosions, collisions, or faulty payload assembly.

Loading next visibility...
Identifier
55881, 2022-151AAD
Orbit
SSO
Last TLE update
13 hours ago
Origin
Manufacturer
SAST
Mission
Spacecraft
Bus & Motor
Unknown
Mass
Unknown
Launch date (UTC)
2022-11-11 (3 years ago)
Launch vehicle
Unknown
Launch site
Taiyaun Space Center, China (TSC)
Object type
Payload
Rocket body
Debris
Shape & HBR
Unknown
Radar Cross Section
Small (<0.1 m²)

Expand to show TLE details & history

TLE from 13 hours ago
0 CZ-6A DEB
1 55881U 22151AAD 25133.11609778  .00040858  00000-0  42204-2 0  9990
2 55881  98.6630 188.5880 0057330  45.1545 315.4307 14.88774655120204
Epoch: 2025-05-13T02:47Z
Definitive object data (Epoch: 2025-05-13T02:47:10.848Z)
Latitude
0.00007°
Longitude
-84.32666°
Altitude
576.373 km
Speed
7.588 km/s
True Right ascension
12h 34m 21s
True Declination
0° 00' 00"
Sunlit
Object was in full shadow at TLE epoch
Visualization TLE readout
Latitude
8.81872°
Longitude
-85.08424°
Altitude
570.85 km
Speed
7.594 km/s
Apparent Right ascension
12h 22m 24s
Apparent Declination
-14° 22' 24"
Sunlit
Object is in full shadow
Visualization observer readout
Local Sidereal Time
00:09:54
Azimuth
353.005° N
Elevation
-64.311°
Doppler factor
1
Orbital elements
Apogee altitude
638.827 km
Perigee altitude
558.829 km
Semi-major axis
6,976.965 km
Eccentricity
0.005733
Inclination
98.663°
RAAN
188.588°
Arg. of periapsis
45.1545°
True anomaly
314.96731°
Mean anomaly
315.4307°
Eccentric anomaly
315.19924°
Mean motion
3.72429 °/min
BSTAR
0.0042204
Orbital period
96.66 mins
Loading maneuver chart data...
Loading SW <> Apogee altitude chart data...
Loading historical data...
Loading historical data...
Loading historical data...
Loading historical data...
Loading historical data...
Loading historical data...
Loading historical data...

CZ-6A DEB Visibility forecast

Observer location: undefined°, undefined°

Span
Click to sort rows by Start time (UTC) header in descending order
Start Az.
Max El. time (UTC)
Max El. Az.
Max El.
End time (UTC)
End Az.
7 mins2025-05-13 16:15:46.996Z29.228° NE2025-05-13 16:18:46.996Z97.913° ESE37.71°2025-05-13 16:22:46.996Z176.738° S
5 mins2025-05-14 03:07:46.996Z126.646° SE2025-05-14 03:09:46.996Z80.889° E30.482°2025-05-14 03:12:46.996Z10.343° NNE
|